Location: Clair
(33.8067°N, 117.9845°W)
Time: 18:02:04
(UTC+00:00)

Hubble Space Telescope - Pass Details

Date: 14 February 2026
Orbit: 476 x 479 km, 28.5° (Epoch: 8 March)

Event Time Altitude Azimuth Distance (km) Brightness Sun altitude
Rises 14:02:56 0° 211° (SSW) 2,513 4.0 -7.8°
Reaches altitude 10° 14:06:38 10° 173° (S) 1,639 3.5 -7.0°
Maximum altitude 14:07:41 11° 157° (SSE) 1,581 3.7 -6.8°
Drops below altitude 10° 14:08:47 10° 140° (SE) 1,647 4.1 -6.6°
Sets 14:12:27 0° 104° (ESE) 2,521 7.1 -5.8°
